星链-30557 (STARLINK-30557 )

导读

STARLINK-30557是SpaceX星链卫星互联网项目的卫星,由美国于2023年10月18日发射升空,属于星链低轨星座组网卫星。它旨在为全球提供高速低延迟互联网服务,尤其覆盖偏远与网络基础设施薄弱地区,依托SpaceX可重复使用火箭技术,持续拓展星链星座的全球服务覆盖能力。

Basic Information
目录编号:
58087
目录名称:
STARLINK-30557
国际标识:
2023-160N
轨道中心:
EARTH
卫星名称:
星链-30557
卫星全名:
星链-30557 (STARLINK-30557 )
卫星状态:
在轨 (已飞行976 天)
发射日期:
2023-10-18 UTC
国别 :
美国 (US)
星等 :
--
Orbit Information
数据来源 国际轨道数据
星历时间: 2026-06-19T18:17:59+0800
1天前
查看轨道信息
半长轴: 6861.186km
偏心率: 0.0001431
轨道倾角: 43.002°
近地点辐角 270.117°
升交点赤经 226.883°
平近点角 89.952°
近地点: 482.067km
远地点: 484.031km
周期: 94.267分钟
每日圈数: 15.275803
Detailed Information
固有亮度:
5
最大亮度:
0.3
卫星平台:
Starlink v2.0 mini
覆盖范围:
全球
运营商:
太空探索技术公司
运营商所在国:
美国
制造商(研发单位):
太空探索技术公司
制造商所在国:
美国
使用方式:
暂无
Satellite Introduction
星链(Starlink)计划是由太空探索技术公司(SpaceX)提出的一个巨型低轨卫星互联网星座项目,计划在2019年至2024年间在太空搭建由约1.2万颗卫星组成的“星链”网络,其中1584颗将部署在地球上空550千米处的近地轨道,并从2020年开始工作。该卫星仍在工作。
2D Orbit Map
3D Orbit Map
Orbit Altitude Analysis Chart
Orbit Inclination Analysis Chart
Orbit Comprehensive Analysis Chart
View Comprehensive Chart